Location: Salillas
(41.9950°N, 0.2228°W)
Time: 03:07:25
(UTC+00:00)

STARLINK-1116 - Pass Details

Date: 29 March 2020
Orbit: 549 x 551 km, 53.0° (Epoch: 31 May)

Event Time Altitude Azimuth Distance (km) Brightness Sun altitude
Rises 20:35:01 0° 303° (WNW) 2,719 8.6 -23.9°
Reaches altitude 10° 20:37:18 10° 298° (WNW) 1,822 7.3 -24.3°
Enters shadow 20:40:57 47° 242° (WSW) 726 4.3 -24.9°
